| time (UTC) | temp F | wind direction | speed knots | gust knots | rain 1hr in | rain 24hr in | rain mn in | humidity % | barometer mb |
| 20260505005547 | 56 | 174 | 9.6 | 20.0 | 0.00 | 0.00 | 0.00 | 38 | 1014.6 |
| 20260505005047 | 56 | 146 | 8.7 | 16.5 | 0.00 | 0.00 | 0.00 | 37 | 1014.9 |
| 20260505004547 | 56 | 205 | 18.2 | 20.0 | 0.00 | 0.00 | 0.00 | 38 | 1014.6 |
| 20260505004011 | 56 | 175 | 8.7 | 14.8 | 0.00 | 0.00 | 0.00 | 39 | 1015.0 |
| 20260505003547 | 57 | 169 | 5.2 | 20.9 | 0.00 | 0.00 | 0.00 | 38 | 1015.0 |
| 20260505003047 | 57 | 190 | 7.8 | 11.3 | 0.00 | 0.00 | 0.00 | 38 | 1015.0 |
| 20260505002511 | 58 | 121 | 3.5 | 13.0 | 0.00 | 0.00 | 0.00 | 35 | 1015.1 |
| 20260505002012 | 59 | 187 | 11.3 | 18.2 | 0.00 | 0.00 | 0.00 | 34 | 1015.0 |
| 20260505001547 | 59 | 138 | 10.4 | 13.0 | 0.00 | 0.00 | 0.00 | 34 | 1014.9 |
| 20260504235546 | 57 | 190 | 7.8 | 25.2 | 0.00 | 0.00 | 0.00 | 34 | 1014.7 |
| 20260504235012 | 59 | 212 | 9.6 | 17.4 | 0.00 | 0.00 | 0.00 | 32 | 1014.7 |
| 20260504233012 | 59 | 217 | 11.3 | 19.1 | 0.00 | 0.00 | 0.00 | 30 | 1014.9 |
| 20260504232546 | 60 | 183 | 4.3 | 10.4 | 0.00 | 0.00 | 0.00 | 30 | 1014.7 |
| 20260504232047 | 60 | 181 | 7.0 | 20.0 | 0.00 | 0.00 | 0.00 | 31 | 1015.0 |
| 20260504231546 | 59 | 194 | 13.0 | 21.7 | 0.00 | 0.00 | 0.00 | 32 | 1015.1 |
| 20260504231046 | 59 | 203 | 6.1 | 15.6 | 0.00 | 0.00 | 0.00 | 33 | 1015.1 |
| 20260504230547 | 60 | 176 | 13.9 | 14.8 | 0.00 | 0.00 | 0.00 | 32 | 1015.0 |
| 20260504230012 | 59 | 194 | 9.6 | 17.4 | 0.00 | 0.00 | 0.00 | 32 | 1015.0 |
| 20260504225546 | 59 | 167 | 6.1 | 14.8 | 0.00 | 0.00 | 0.00 | 32 | 1014.9 |
| 20260504225047 | 58 | 178 | 13.9 | 21.7 | 0.00 | 0.00 | 0.00 | 33 | 1015.1 |
| 20260504223011 | 62 | 173 | 5.2 | 13.0 | 0.00 | 0.00 | 0.00 | 30 | 1015.5 |
| 20260504222547 | 60 | 232 | 7.0 | 13.0 | 0.00 | 0.00 | 0.00 | 30 | 1015.2 |
| 20260504222046 | 60 | 186 | 9.6 | 11.3 | 0.00 | 0.00 | 0.00 | 30 | 1015.3 |
| 20260504221517 | 59 | 160 | 12.2 | 27.8 | 0.00 | 0.00 | 0.00 | 31 | 1015.4 |
| 20260504221011 | 60 | 180 | 8.7 | 18.2 | 0.00 | 0.00 | 0.00 | 32 | 1015.5 |
| 20260504220547 | 60 | 147 | 6.1 | 22.6 | 0.00 | 0.00 | 0.00 | 32 | 1015.4 |
| 20260504220016 | 61 | 135 | 6.1 | 21.7 | 0.00 | 0.00 | 0.00 | 32 | 1015.4 |
| 20260504215547 | 61 | 181 | 11.3 | 17.4 | 0.00 | 0.00 | 0.00 | 33 | 1015.4 |
| 20260504215012 | 61 | 150 | 8.7 | 20.0 | 0.00 | 0.00 | 0.00 | 32 | 1015.4 |
| 20260504214515 | 60 | 201 | 13.0 | 17.4 | 0.00 | 0.00 | 0.00 | 34 | 1015.5 |
| 20260504214047 | 61 | 159 | 8.7 | 23.5 | 0.00 | 0.00 | 0.00 | 31 | 1015.6 |
| 20260504213547 | 60 | 143 | 7.8 | 19.1 | 0.00 | 0.00 | 0.00 | 28 | 1015.6 |
| 20260504213014 | 60 | 190 | 11.3 | 17.4 | 0.00 | 0.00 | 0.00 | 32 | 1015.5 |
| 20260504212547 | 61 | 117 | 2.6 | 16.5 | 0.00 | 0.00 | 0.00 | 32 | 1015.6 |
| 20260504212012 | 61 | 209 | 7.0 | 13.0 | 0.00 | 0.00 | 0.00 | 31 | 1015.7 |
| 20260504211514 | 59 | 214 | 12.2 | 29.5 | 0.00 | 0.00 | 0.00 | 32 | 1015.8 |
| 20260504211047 | 60 | 178 | 9.6 | 20.9 | 0.00 | 0.00 | 0.00 | 36 | 1015.9 |
| 20260504210512 | 60 | 165 | 9.6 | 23.5 | 0.00 | 0.00 | 0.00 | 42 | 1015.6 |
| 20260504210011 | 60 | 187 | 13.0 | 19.1 | 0.00 | 0.00 | 0.00 | 40 | 1015.6 |
| 20260504205547 | 59 | 198 | 18.2 | 33.0 | 0.00 | 0.00 | 0.00 | 37 | 1015.7 |
| 20260504205012 | 60 | 172 | 13.9 | 19.1 | 0.00 | 0.00 | 0.00 | 38 | 1015.9 |
| 20260504204510 | 59 | 217 | 15.6 | 19.1 | 0.00 | 0.00 | 0.00 | 41 | 1015.9 |
| 20260504204047 | 60 | 209 | 18.2 | 20.9 | 0.00 | 0.00 | 0.00 | 38 | 1015.9 |
| 20260504203547 | 60 | 195 | 17.4 | 21.7 | 0.00 | 0.00 | 0.00 | 39 | 1015.8 |
| 20260504203009 | 60 | 143 | 13.9 | 20.9 | 0.00 | 0.00 | 0.00 | 43 | 1015.6 |
| 20260504202546 | 61 | 176 | 8.7 | 13.0 | 0.00 | 0.00 | 0.00 | 41 | 1015.5 |
| 20260504202047 | 59 | 216 | 13.0 | 18.2 | 0.00 | 0.00 | 0.00 | 42 | 1015.6 |
| 20260504201507 | 60 | 182 | 12.2 | 23.5 | 0.00 | 0.00 | 0.00 | 43 | 1015.8 |
| 20260504201012 | 61 | 186 | 13.0 | 19.1 | 0.00 | 0.00 | 0.00 | 41 | 1015.7 |
| 20260504200547 | 59 | 186 | 11.3 | 24.3 | 0.00 | 0.00 | 0.00 | 49 | 1015.7 |
| 20260504200006 | 60 | 107 | 13.0 | 16.5 | 0.00 | 0.00 | 0.00 | 43 | 1015.9 |
| 20260504195546 | 60 | 192 | 7.0 | 12.2 | 0.00 | 0.00 | 0.00 | 43 | 1015.9 |
| 20260504195047 | 58 | 125 | 7.8 | 28.7 | 0.00 | 0.00 | 0.00 | 49 | 1015.9 |
| 20260504193004 | 59 | 192 | 12.2 | 18.2 | 0.00 | 0.00 | 0.00 | 52 | 1015.9 |
| 20260504192512 | 59 | 113 | 4.3 | 17.4 | 0.00 | 0.00 | 0.00 | 49 | 1015.9 |
| 20260504192012 | 60 | 122 | 7.0 | 15.6 | 0.00 | 0.00 | 0.00 | 47 | 1015.7 |
| 20260504191502 | 60 | 139 | 20.0 | 26.1 | 0.00 | 0.00 | 0.00 | 44 | 1015.6 |
| 20260504191012 | 59 | 137 | 12.2 | 20.9 | 0.00 | 0.00 | 0.00 | 46 | 1015.9 |
| 20260504190547 | 60 | 152 | 21.7 | 22.6 | 0.00 | 0.00 | 0.00 | 44 | 1015.9 |
| 20260504190002 | 59 | 131 | 6.1 | 20.9 | 0.00 | 0.00 | 0.00 | 46 | 1016.2 |
| 20260504185546 | 58 | 168 | 13.0 | 24.3 | 0.00 | 0.00 | 0.00 | 47 | 1016.3 |
| 20260504185011 | 60 | 157 | 8.7 | 22.6 | 0.00 | 0.00 | 0.00 | 43 | 1016.1 |
| 20260504184549 | 60 | 140 | 13.0 | 20.9 | 0.00 | 0.00 | 0.00 | 45 | 1016.2 |
| 20260504184047 | 58 | 173 | 9.6 | 25.2 | 0.00 | 0.00 | 0.00 | 48 | 1016.4 |
| 20260504183547 | 58 | 218 | 19.1 | 23.5 | 0.00 | 0.00 | 0.00 | 43 | 1016.2 |
| 20260504183011 | 59 | 132 | 9.6 | 15.6 | 0.00 | 0.00 | 0.00 | 46 | 1016.1 |
| 20260504182547 | 58 | 107 | 6.1 | 18.2 | 0.00 | 0.00 | 0.00 | 48 | 1016.1 |
| 20260504182047 | 60 | 161 | 7.8 | 13.9 | 0.00 | 0.00 | 0.00 | 45 | 1015.9 |
| 20260504181547 | 58 | 190 | 9.6 | 17.4 | 0.00 | 0.00 | 0.00 | 48 | 1015.9 |
| 20260504181047 | 59 | 139 | 7.0 | 13.9 | 0.00 | 0.00 | 0.00 | 48 | 1016.3 |
| 20260504180547 | 58 | 191 | 9.6 | 15.6 | 0.00 | 0.00 | 0.00 | 48 | 1016.3 |
| 20260504180011 | 58 | 182 | 7.8 | 16.5 | 0.00 | 0.00 | 0.00 | 47 | 1016.3 |
| 20260504175546 | 58 | 138 | 7.0 | 18.2 | 0.00 | 0.00 | 0.00 | 48 | 1016.0 |
| 20260504174011 | 58 | 207 | 14.8 | 18.2 | 0.00 | 0.00 | 0.00 | 45 | 1016.0 |
| 20260504173547 | 58 | 154 | 6.1 | 16.5 | 0.00 | 0.00 | 0.00 | 47 | 1015.9 |
| 20260504173011 | 58 | 158 | 7.8 | 15.6 | 0.00 | 0.00 | 0.00 | 48 | 1016.1 |
| 20260504172546 | 58 | 227 | 10.4 | 17.4 | 0.00 | 0.00 | 0.00 | 48 | 1016.1 |
| 20260504172046 | 59 | 118 | 11.3 | 13.0 | 0.00 | 0.00 | 0.00 | 47 | 1016.2 |
| 20260504171546 | 58 | 115 | 12.2 | 16.5 | 0.00 | 0.00 | 0.00 | 48 | 1016.3 |
| 20260504171047 | 58 | 119 | 8.7 | 12.2 | 0.00 | 0.00 | 0.00 | 47 | 1016.3 |
| 20260504170547 | 58 | 185 | 6.1 | 11.3 | 0.00 | 0.00 | 0.00 | 47 | 1015.9 |
| 20260504151012 | 55 | 148 | 5.2 | 7.0 | 0.00 | 0.00 | 0.00 | 47 | 1015.9 |
| 20260504150555 | 54 | 177 | 6.1 | 9.6 | 0.00 | 0.00 | 0.00 | 49 | 1016.0 |
| 20260504141011 | 51 | 146 | 7.0 | 13.9 | 0.00 | 0.00 | 0.00 | 57 | 1015.8 |
| 20260504140555 | 51 | 137 | 7.8 | 13.0 | 0.00 | 0.00 | 0.00 | 57 | 1015.6 |
| 20260504130555 | 51 | 136 | 6.1 | 10.4 | 0.00 | 0.00 | 0.00 | 57 | 1015.5 |
| 20260504110513 | 50 | 101 | 2.6 | 5.2 | 0.00 | 0.00 | 0.00 | 59 | 1015.7 |
| 20260504100555 | 52 | 127 | 7.0 | 8.7 | 0.00 | 0.00 | 0.00 | 56 | 1015.8 |
| 20260504050556 | 59 | 208 | 3.5 | 4.3 | 0.00 | 0.00 | 0.00 | 35 | 1016.3 |
| 20260504045555 | 59 | 192 | 5.2 | 9.6 | 0.00 | 0.00 | 0.00 | 35 | 1016.2 |
| 20260504045055 | 59 | 199 | 3.5 | 6.1 | 0.00 | 0.00 | 0.00 | 36 | 1016.0 |
| 20260504044556 | 60 | 189 | 1.7 | 10.4 | 0.00 | 0.00 | 0.00 | 36 | 1015.9 |
| 20260504044012 | 60 | 152 | 4.3 | 9.6 | 0.00 | 0.00 | 0.00 | 36 | 1016.1 |
| 20260504043555 | 60 | 162 | 6.1 | 9.6 | 0.00 | 0.00 | 0.00 | 36 | 1016.1 |
| 20260504043056 | 60 | 322 | 3.5 | 17.4 | 0.00 | 0.00 | 0.00 | 35 | 1016.0 |
| 20260504041013 | 61 | 194 | 7.0 | 11.3 | 0.00 | 0.00 | 0.00 | 36 | 1015.9 |
| 20260504040555 | 61 | 200 | 6.1 | 6.1 | 0.00 | 0.00 | 0.00 | 36 | 1015.9 |
| 20260504040055 | 61 | 196 | 6.1 | 7.8 | 0.00 | 0.00 | 0.00 | 35 | 1015.9 |
| 20260504035555 | 61 | 212 | 7.0 | 9.6 | 0.00 | 0.00 | 0.00 | 35 | 1015.9 |
| 20260504035055 | 61 | 203 | 7.0 | 7.8 | 0.00 | 0.00 | 0.00 | 35 | 1015.9 |
| 20260504031555 | 63 | 188 | 6.1 | 13.9 | 0.00 | 0.00 | 0.00 | 29 | 1015.4 |
| 20260504031055 | 63 | 187 | 4.3 | 13.0 | 0.00 | 0.00 | 0.00 | 29 | 1015.4 |
| 20260504030556 | 63 | 205 | 5.2 | 10.4 | 0.00 | 0.00 | 0.00 | 28 | 1015.2 |
| 20260504030012 | 63 | 182 | 7.0 | 17.4 | 0.00 | 0.00 | 0.00 | 28 | 1015.0 |
| 20260504025556 | 64 | 220 | 11.3 | 20.9 | 0.00 | 0.00 | 0.00 | 27 | 1015.2 |
| 20260504025056 | 64 | 215 | 13.0 | 19.1 | 0.00 | 0.00 | 0.00 | 27 | 1015.3 |
| 20260504024512 | 64 | 219 | 13.0 | 22.6 | 0.00 | 0.00 | 0.00 | 26 | 1015.1 |
| 20260504024012 | 64 | 211 | 17.4 | 17.4 | 0.00 | 0.00 | 0.00 | 26 | 1015.0 |
| 20260504023556 | 64 | 184 | 6.1 | 18.2 | 0.00 | 0.00 | 0.00 | 26 | 1015.2 |
| 20260504023012 | 64 | 184 | 6.1 | 17.4 | 0.00 | 0.00 | 0.00 | 25 | 1015.2 |
| 20260504022555 | 64 | 187 | 7.8 | 18.2 | 0.00 | 0.00 | 0.00 | 25 | 1015.0 |
| 20260504022056 | 65 | 241 | 7.0 | 20.0 | 0.00 | 0.00 | 0.00 | 24 | 1015.0 |
| 20260504020055 | 66 | 194 | 4.3 | 13.0 | 0.00 | 0.00 | 0.00 | 23 | 1014.6 |
| 20260504015555 | 66 | 207 | 13.9 | 14.8 | 0.00 | 0.00 | 0.00 | 23 | 1014.7 |
| 20260504015013 | 66 | 188 | 9.6 | 14.8 | 0.00 | 0.00 | 0.00 | 22 | 1014.7 |
| 20260504014555 | 67 | 168 | 10.4 | 12.2 | 0.00 | 0.00 | 0.00 | 23 | 1014.6 |
| 20260504014056 | 67 | 172 | 10.4 | 13.0 | 0.00 | 0.00 | 0.00 | 22 | 1014.5 |
| 20260504013555 | 68 | 213 | 6.1 | 13.0 | 0.00 | 0.00 | 0.00 | 22 | 1014.6 |
| 20260504013055 | 68 | 208 | 8.7 | 13.0 | 0.00 | 0.00 | 0.00 | 22 | 1014.7 |
| 20260504012555 | 68 | 218 | 13.0 | 13.9 | 0.00 | 0.00 | 0.00 | 23 | 1014.7 |
| 20260504012013 | 68 | 165 | 6.1 | 15.6 | 0.00 | 0.00 | 0.00 | 23 | 1014.7 |
| 20260504011555 | 68 | 181 | 14.8 | 19.1 | 0.00 | 0.00 | 0.00 | 22 | 1014.9 |
| 20260504011056 | 68 | 181 | 7.0 | 21.7 | 0.00 | 0.00 | 0.00 | 23 | 1014.6 |
| 20260504010512 | 69 | 196 | 13.0 | 14.8 | 0.00 | 0.00 | 0.00 | 22 | 1014.5 |